Temperature
25 26 26 26 26 26 26 25 25 25 26 26 27 27 27 26 26 25 24 24 23 22 21 20 20 19 19 18 18 17 17 16 16 15 15 14 14 14 14 14 14 13 13 13
25 26 26 26 26 26 26 26 26 26 26 27 27 27 27 26 26 25 24 24 23 22 21 20 20 19 19 18 18 17 17 16 16 15 15 15 14 14 14 14 13 13 13 13
24 25 25 25 26 26 26 26 26 25 25 26 26 26 26 26 25 25 24 24 23 22 22 21 20 19 19 18 18 17 17 16 16 15 15 15 14 14 14 14 13 13 13 13
24 24 23 25 27 27 26 26 26 26 26 26 26 26 26 25 25 24 24 23 23 23 22 21 21 20 19 18 18 17 17 16 16 15 15 15 14 14 14 14 13 13 13 13
23 23 24 26 27 27 26 25 26 26 26 26 26 26 25 25 24 24 23 23 23 22 22 21 21 20 19 19 18 18 17 16 16 15 15 15 14 14 14 14 13 13 13 13
23 22 22 25 26 27 26 24 25 25 25 25 25 23 24 24 23 23 23 22 22 22 21 21 21 20 20 19 18 18 17 16 16 15 15 15 14 14 14 14 13 13 13 13
22 22 24 25 26 26 24 23 24 24 24 24 23 23 23 23 23 22 22 21 21 21 21 20 20 20 19 19 18 18 17 16 16 15 15 15 14 14 14 14 13 13 13 13
23 22 23 25 25 24 23 24 23 23 23 23 22 22 22 22 22 21 21 21 21 20 20 20 20 19 19 19 18 18 17 16 16 15 15 15 14 14 14 13 13 13 13 12
23 22 23 23 23 23 23 23 22 22 22 22 21 21 21 21 21 21 20 20 20 20 20 19 19 19 19 18 18 18 17 16 16 15 15 14 14 14 14 13 13 13 12 12
22 23 23 23 22 22 22 21 21 21 21 21 21 20 20 20 20 20 19 19 19 19 19 19 19 18 18 18 18 17 17 16 15 15 15 14 14 14 14 13 13 13 12 12
21 22 22 22 21 21 21 20 20 20 20 20 20 20 20 19 20 19 19 19 19 19 19 18 18 18 18 18 17 17 16 16 15 15 15 14 14 14 14 13 13 13 12 12
20 21 21 21 20 20 19 19 19 19 19 19 19 19 19 19 19 19 18 18 18 18 18 18 18 18 18 17 17 16 16 15 15 15 14 14 14 13 13 13 13 12 12 12
20 20 19 19 19 19 19 18 18 18 18 18 18 18 18 18 18 18 18 18 18 18 17 17 17 17 17 17 17 16 16 16 15 15 14 14 14 13 13 13 12 12 12 12
18 18 18 18 18 18 18 18 18 17 17 18 18 18 17 17 17 17 17 17 17 17 17 17 17 17 17 17 16 16 16 16 15 15 14 14 13 13 13 12 12 12 11 11
17 17 17 17 17 17 17 17 17 17 17 17 17 17 17 17 17 17 17 17 16 16 16 16 16 16 16 16 16 16 16 15 15 15 14 14 13 13 12 12 12 11 11 11
16 16 16 16 16 16 16 16 16 16 16 16 16 16 16 16 16 16 16 16 16 16 16 16 16 16 16 16 15 15 15 15 15 14 14 13 13 13 12 12 11 11 11 10
15 15 15 15 15 15 15 15 15 15 15 15 15 15 15 15 15 15 15 15 15 15 15 15 15 15 15 15 15 15 14 14 14 14 13 13 13 12 12 11 11 11 10 10
14 14 14 14 14 14 14 14 14 14 14 14 14 14 14 14 14 15 15 15 15 14 14 14 14 14 14 14 14 14 14 14 13 13 13 12 12 12 11 11 11 10 10 9
13 13 13 13 13 13 13 13 13 13 13 13 14 14 14 14 14 14 14 14 14 14 14 14 14 14 14 14 13 13 13 13 13 12 12 12 11 11 11 10 10 10 9 9
12 12 12 12 12 12 12 12 13 13 13 13 13 13 13 13 13 13 13 13 13 13 13 13 13 13 13 13 12 12 12 12 12 11 11 11 11 10 10 10 9 9 9 8
11 11 11 11 11 11 12 12 12 12 12 12 12 12 12 12 12 12 12 12 12 12 12 12 12 12 12 12 12 11 11 11 11 11 10 10 10 10 9 9 9 8 8 8
11 11 11 11 11 11 11 11 11 11 11 11 11 12 12 12 12 12 12 11 11 11 11 11 11 11 11 11 11 11 10 10 10 10 10 10 9 9 9 9 8 8 7 7
10 10 10 10 10 10 10 11 11 11 11 11 11 11 11 11 11 11 11 11 11 11 11 11 11 11 11 10 10 10 10 9 9 9 9 9 9 9 8 8 7 7 7 6
10 10 10 10 10 10 10 10 10 11 11 10 10 10 10 10 10 10 10 10 10 10 10 10 10 10 10 10 9 9 9 9 9 9 8 8 8 8 7 7 7 6 6 6
9 9 9 9 9 9 9 9 10 10 10 10 10 10 10 10 10 10 9 9 9 9 9 9 9 9 9 9 9 8 8 8 8 8 8 7 7 7 7 6 6 6 5 5
9 9 9 9 9 9 9 9 9 9 9 9 9 9 9 9 9 9 9 9 9 9 9 9 9 9 8 8 8 8 8 7 7 7 7 7 7 6 6 6 5 5 5 4
8 8 8 8 8 8 8 8 9 8 8 8 8 8 8 8 8 8 8 8 8 8 8 8 8 8 8 8 7 7 7 7 7 7 7 6 6 6 6 5 5 5 4 4
Wind_Speed
9 9 8 8 8 8 9 9 9 8 7 6 4 2 1 2 3 4 6 7 8 8 8 9 8 8 7 7 7 7 7 5 4 3 3 1 1 1 1 2 3 2 2 2
12 11 10 11 10 10 10 10 10 9 7 6 6 3 2 0 2 3 5 6 8 8 9 9 8 8 8 7 7 7 7 6 4 3 3 2 1 1 1 2 3 3 3 2
11 12 12 11 9 9 8 7 8 8 5 5 5 3 3 1 0 2 4 5 6 7 8 9 10 9 9 8 7 6 7 7 5 4 3 2 0 1 1 1 1 2 2 3
10 11 12 5 4 3 5 5 6 5 4 4 5 3 2 1 1 0 2 4 5 6 7 7 9 9 10 9 8 7 6 7 6 4 3 3 1 0 2 1 1 1 1 2
9 10 9 7 5 4 4 4 4 4 5 5 6 4 2 3 3 2 2 2 4 4 5 6 7 9 9 9 8 7 6 6 7 5 4 3 2 1 1 1 1 0 1 2
9 10 9 4 4 4 4 3 5 5 5 6 6 3 3 4 4 4 4 3 3 4 4 5 6 7 7 8 8 7 7 6 6 6 5 4 2 1 1 1 1 1 2 3
10 12 8 3 3 2 3 2 6 7 6 6 5 5 5 4 4 4 4 4 3 3 4 4 5 6 6 7 7 8 8 7 7 6 5 4 2 1 0 0 1 1 2 2
9 11 6 5 3 2 4 6 7 8 8 7 6 6 5 4 3 2 2 3 3 3 3 4 5 6 6 6 7 8 8 8 7 6 5 5 4 2 1 1 0 0 1 2
6 5 4 5 4 5 6 7 7 7 7 7 6 5 5 3 2 0 1 3 3 3 4 4 5 6 7 6 8 9 9 8 7 7 5 4 4 3 2 1 1 1 1 2
10 7 6 4 4 5 5 6 7 7 7 7 6 6 5 4 2 1 1 2 3 4 5 5 5 5 6 7 9 10 9 8 7 6 6 5 3 2 2 1 1 1 2 2
13 10 8 6 6 7 8 8 8 8 7 7 7 7 6 5 4 2 2 2 4 4 5 6 6 5 6 8 9 9 9 8 7 7 6 5 5 3 3 3 3 2 2 2
12 10 10 9 7 8 9 9 9 10 9 7 7 7 7 6 5 3 3 3 3 5 5 5 6 6 6 8 9 9 8 8 7 7 7 7 7 5 7 6 8 9 7 5
15 13 12 11 10 9 9 10 10 10 10 9 8 7 7 6 5 4 4 4 5 5 6 5 6 6 7 8 9 9 8 8 7 7 7 7 8 7 5 4 6 7 7 7
12 12 14 12 11 11 11 11 11 11 10 9 8 7 6 6 5 5 5 5 5 5 5 5 6 6 7 7 8 9 8 8 8 7 7 7 7 7 7 7 5 3 3 4
13 12 12 12 11 11 10 10 11 10 9 8 7 7 6 6 6 6 5 4 4 5 5 5 6 6 6 6 7 8 7 6 7 7 6 6 6 6 6 6 6 7 5 3
12 11 11 12 11 10 10 11 11 10 8 8 7 7 7 7 7 6 5 4 5 6 6 6 6 5 6 6 5 5 6 8 8 7 7 6 6 6 6 6 6 6 6 5
11 10 10 10 10 9 9 9 10 9 9 8 8 8 8 7 7 6 5 5 5 5 5 5 5 5 6 6 5 5 5 7 9 6 6 6 6 6 6 6 5 5 5 6
9 9 9 10 9 9 9 9 9 9 9 9 8 8 7 7 7 6 5 5 5 5 5 4 4 5 6 6 5 4 5 6 6 6 5 5 6 6 6 6 6 7 6 5
7 8 8 8 9 9 9 8 8 8 8 8 8 8 8 8 7 6 5 5 5 5 5 4 6 6 6 7 6 4 6 7 6 5 5 7 6 5 6 6 6 7 7 6
7 7 8 8 8 9 9 8 8 8 8 8 8 8 7 7 6 5 4 5 5 4 3 4 6 6 6 7 7 4 6 7 7 7 6 6 6 5 6 6 6 6 6 6
7 7 7 8 8 8 8 9 8 8 8 8 8 8 8 7 6 5 4 4 4 2 3 6 6 5 6 7 7 4 5 6 7 7 7 6 6 5 6 6 6 6 6 5
7 6 7 8 8 8 8 8 8 8 8 8 8 7 7 6 6 5 4 4 3 4 4 4 5 6 9 9 6 5 4 5 6 6 6 6 6 6 6 6 6 6 5 5
8 8 8 8 9 9 9 9 8 8 7 7 7 7 6 5 4 4 4 2 2 4 4 4 6 9 12 8 5 5 5 5 6 6 6 6 6 6 6 6 6 5 5 5
9 8 8 8 8 8 8 8 7 6 6 6 6 6 5 4 4 3 2 2 3 5 4 5 9 11 11 6 6 5 5 5 5 6 6 6 6 6 6 6 6 6 6 6
9 9 8 8 7 6 7 7 7 6 5 4 5 5 4 2 3 2 2 2 4 5 4 7 11 12 8 6 6 6 6 6 7 7 6 6 6 6 6 6 6 6 5 5
9 7 7 7 6 5 5 6 5 4 4 4 4 3 3 2 1 1 2 3 4 5 4 5 7 8 6 6 6 7 7 8 8 7 7 7 7 7 7 7 7 6 6 5
8 7 6 5 5 4 5 5 4 4 4 3 3 2 2 3 2 1 2 2 2 3 3 4 5 6 5 5 6 6 6 7 7 7 7 7 7 7 7 8 6 6 6 6
Wind_Direction
273 275 273 275 269 262 262 269 275 288 303 324 323 304 187 170 171 170 170 167 163 164 165 169 176 170 163 160 160 161 156 154 156 149 134 135 289 328 16 347 340 345 1 19
286 280 278 270 263 257 259 268 276 281 290 318 328 340 340 210 168 172 172 175 173 169 167 171 172 164 160 162 167 162 153 148 145 152 145 155 244 13 12 343 338 344 355 33
288 285 281 270 265 257 255 264 274 282 300 327 326 331 325 319 172 173 172 175 173 174 175 175 172 166 164 166 170 166 155 147 151 165 152 155 149 53 322 315 338 339 4 39
283 282 273 273 288 280 267 273 285 290 313 328 319 306 323 8 21 204 161 171 171 172 167 168 166 163 164 166 168 167 156 148 150 151 145 148 145 296 292 296 326 332 18 51
277 277 273 270 273 259 263 279 313 320 344 350 330 305 7 34 45 61 108 122 143 151 151 160 157 158 162 165 160 155 148 144 145 148 149 151 159 215 267 316 316 340 63 70
270 277 280 301 2 0 301 290 11 7 8 0 351 339 8 28 42 53 78 86 106 131 141 150 148 148 158 158 152 152 149 145 141 142 147 152 157 195 261 274 281 111 83 77
260 267 272 318 339 348 284 6 26 21 16 9 2 353 351 18 42 57 85 105 121 146 145 147 144 147 160 154 154 148 143 139 138 141 150 147 142 147 164 6 359 77 99 97
258 263 269 356 341 6 14 19 26 15 9 6 358 353 1 12 36 77 109 136 150 157 146 145 153 157 160 159 145 136 137 139 143 148 155 147 142 149 158 170 207 148 105 95
285 293 335 5 11 12 6 1 8 358 354 346 338 340 341 337 343 80 148 162 168 170 162 162 165 169 165 155 142 138 141 147 151 151 147 139 142 152 172 181 141 100 97 88
288 283 302 324 334 341 342 346 348 343 340 331 322 321 316 307 292 252 183 186 181 182 181 182 180 179 167 156 150 148 154 158 158 158 152 143 134 126 112 86 72 60 73 75
287 297 304 302 318 330 336 331 324 323 321 318 314 310 307 300 289 251 221 209 196 197 197 191 180 181 168 163 162 163 166 167 163 160 152 134 119 96 113 89 98 99 65 66
279 294 297 301 310 318 314 312 314 312 307 306 303 299 298 293 287 263 227 221 216 208 206 198 186 183 175 172 174 175 175 173 168 160 154 149 138 108 68 96 98 92 86 94
284 295 298 303 305 307 305 306 308 306 303 299 295 293 291 287 279 266 239 220 223 221 213 203 193 189 183 179 183 183 176 172 167 164 161 162 158 154 144 102 82 89 97 101
287 291 288 290 294 297 297 296 295 294 295 295 295 294 290 287 280 267 249 234 227 226 216 202 195 195 184 182 187 186 179 174 167 163 163 167 168 166 164 163 161 146 128 136
281 281 285 291 291 294 298 298 295 293 295 297 299 295 290 285 275 269 263 247 231 224 218 209 202 196 182 181 188 187 177 171 169 165 164 164 163 162 158 158 153 148 146 154
285 284 283 284 287 291 292 292 292 292 296 299 301 297 293 290 284 274 265 241 228 225 218 211 206 190 176 177 184 183 172 169 165 163 164 163 162 160 156 156 152 146 147 150
278 278 282 285 288 289 290 290 291 293 294 294 296 295 289 287 282 271 261 246 237 234 223 209 199 179 174 174 174 172 162 164 165 165 166 164 162 160 154 151 145 137 132 138
272 277 279 283 288 290 290 290 293 296 297 296 294 291 287 281 275 267 263 255 240 231 222 200 177 174 175 170 169 165 163 164 171 172 164 157 155 154 149 146 144 137 135 143
277 278 282 286 291 293 294 295 298 300 300 299 298 293 288 280 274 267 257 248 237 231 216 190 179 178 175 173 166 162 166 167 170 165 152 149 155 153 151 150 146 143 144 145
276 279 283 286 287 289 292 294 296 297 300 302 300 296 291 287 285 274 251 238 234 228 207 187 183 184 177 171 165 171 172 170 166 159 152 157 163 162 156 151 148 146 145 144
283 286 290 291 293 294 293 294 296 296 298 297 295 292 290 290 285 273 254 248 243 213 195 181 185 180 171 166 169 176 173 166 160 158 158 160 163 160 155 152 147 145 142 138
285 285 286 289 289 288 288 291 293 295 294 292 290 289 288 285 283 274 258 247 227 200 197 190 186 172 166 160 171 169 168 164 158 156 157 157 158 154 151 146 141 138 136 133
278 277 278 281 283 284 288 290 290 290 290 291 291 289 286 283 276 270 262 247 211 198 199 194 181 165 160 161 167 165 167 167 162 158 156 154 153 151 149 145 141 137 135 132
282 283 282 283 286 291 295 299 300 300 297 294 287 284 280 279 276 272 265 225 208 198 199 184 174 169 165 171 170 170 173 171 162 155 150 148 147 145 142 140 137 135 134 132
278 278 279 283 287 291 295 301 303 300 296 296 295 295 292 276 268 279 276 245 208 193 191 183 181 178 179 179 177 175 171 168 162 156 153 151 148 144 140 138 137 135 134 133
288 283 281 280 281 285 291 292 292 293 294 298 300 306 311 307 293 277 243 226 210 197 187 179 181 181 185 180 176 172 167 164 163 159 156 153 152 150 149 147 143 142 140 140
286 283 283 284 282 280 280 282 288 294 296 295 300 312 325 325 315 291 273 233 194 187 183 181 182 182 178 173 168 162 161 159 159 158 156 154 151 150 150 149 146 144 142 139
Height
1466 1461 1460 1461 1461 1460 1463 1464 1469 1466 1461 1457 1453 1452 1453 1455 1457 1459 1462 1464 1467 1469 1472 1474 1477 1479 1481 1483 1484 1486 1487 1487 1488 1488 1488 1488 1488 1488 1487 1486 1485 1484 1483 1482
1466 1459 1457 1458 1456 1456 1458 1457 1458 1458 1458 1451 1450 1451 1452 1453 1455 1457 1459 1462 1464 1466 1469 1471 1474 1476 1478 1480 1482 1484 1485 1485 1486 1487 1487 1487 1487 1486 1486 1485 1484 1484 1483 1482
1472 1461 1459 1463 1453 1452 1453 1452 1454 1458 1455 1450 1450 1451 1452 1452 1454 1455 1457 1459 1461 1464 1466 1468 1470 1473 1475 1478 1480 1482 1483 1483 1484 1485 1485 1485 1485 1485 1485 1484 1484 1483 1482 1481
1470 1468 1478 1459 1443 1444 1448 1449 1448 1449 1449 1449 1450 1450 1451 1451 1453 1454 1455 1457 1459 1461 1463 1466 1468 1470 1472 1475 1477 1479 1481 1481 1482 1483 1483 1484 1483 1483 1483 1483 1483 1482 1482 1481
1471 1473 1465 1452 1444 1443 1448 1450 1447 1447 1448 1448 1449 1448 1449 1451 1452 1453 1454 1455 1457 1459 1461 1464 1466 1468 1470 1473 1475 1477 1478 1479 1480 1481 1481 1482 1482 1482 1482 1482 1482 1482 1481 1480
1469 1475 1473 1455 1444 1442 1446 1454 1448 1448 1449 1449 1449 1452 1452 1451 1451 1452 1453 1454 1455 1457 1460 1462 1464 1466 1468 1470 1472 1474 1475 1477 1478 1478 1479 1480 1480 1480 1481 1481 1481 1481 1480 1480
1470 1470 1460 1449 1445 1446 1459 1459 1451 1450 1451 1451 1452 1453 1453 1452 1452 1452 1452 1453 1454 1456 1458 1460 1462 1464 1466 1468 1469 1471 1473 1474 1475 1476 1477 1478 1478 1479 1479 1480 1480 1480 1479 1479
1463 1467 1464 1448 1447 1452 1455 1452 1452 1452 1453 1453 1453 1453 1452 1452 1451 1451 1451 1452 1453 1454 1456 1458 1460 1462 1463 1465 1467 1468 1470 1472 1473 1474 1475 1476 1476 1477 1478 1478 1478 1479 1479 1478
1457 1459 1452 1450 1451 1453 1453 1453 1454 1454 1454 1454 1453 1452 1452 1451 1451 1451 1450 1450 1451 1452 1454 1455 1457 1459 1460 1462 1464 1465 1467 1469 1470 1472 1473 1473 1474 1475 1476 1476 1477 1477 1477 1477
1453 1450 1450 1451 1451 1452 1453 1454 1454 1454 1454 1453 1453 1451 1451 1450 1450 1449 1449 1449 1449 1450 1451 1452 1454 1455 1457 1459 1461 1462 1464 1466 1468 1469 1470 1471 1472 1473 1473 1474 1475 1475 1476 1476
1453 1451 1451 1450 1451 1452 1452 1452 1452 1452 1452 1452 1451 1450 1449 1448 1447 1447 1446 1446 1447 1447 1448 1449 1450 1452 1454 1455 1457 1459 1461 1463 1464 1466 1468 1469 1470 1471 1471 1472 1473 1473 1474 1474
1454 1452 1452 1450 1451 1451 1451 1451 1451 1450 1449 1449 1448 1447 1446 1445 1445 1444 1443 1443 1443 1444 1444 1445 1447 1448 1449 1451 1453 1455 1457 1459 1461 1463 1464 1466 1467 1468 1469 1470 1471 1471 1472 1472
1452 1451 1450 1449 1449 1449 1449 1448 1448 1447 1446 1445 1444 1444 1443 1442 1441 1440 1440 1439 1439 1439 1440 1441 1442 1444 1445 1447 1449 1451 1453 1455 1457 1459 1460 1462 1463 1465 1466 1468 1468 1469 1470 1470
1449 1448 1447 1446 1446 1446 1445 1444 1444 1443 1442 1442 1440 1439 1438 1437 1437 1436 1435 1435 1435 1435 1436 1437 1438 1439 1441 1442 1444 1447 1449 1451 1453 1455 1456 1458 1460 1461 1463 1464 1465 1466 1467 1468
1444 1444 1443 1442 1442 1441 1441 1440 1439 1438 1437 1436 1436 1435 1434 1433 1432 1431 1431 1431 1431 1431 1431 1432 1433 1434 1436 1437 1439 1442 1444 1446 1448 1450 1452 1455 1457 1458 1460 1461 1462 1463 1464 1465
1440 1439 1438 1438 1437 1437 1437 1436 1435 1434 1433 1432 1431 1430 1429 1428 1427 1426 1426 1426 1426 1425 1426 1427 1428 1429 1431 1433 1434 1437 1439 1441 1444 1446 1448 1450 1453 1455 1456 1458 1460 1461 1462 1463
1435 1434 1434 1434 1433 1433 1433 1432 1431 1429 1428 1427 1426 1425 1424 1423 1422 1421 1421 1420 1420 1420 1421 1422 1423 1424 1426 1428 1429 1432 1434 1436 1439 1441 1444 1446 1448 1450 1452 1454 1456 1457 1459 1460
1430 1430 1430 1430 1430 1429 1428 1427 1426 1425 1424 1422 1421 1420 1419 1418 1416 1416 1415 1415 1415 1415 1416 1417 1418 1419 1421 1423 1425 1427 1429 1431 1434 1436 1439 1442 1444 1447 1449 1451 1453 1454 1456 1458
1426 1426 1426 1426 1425 1425 1424 1423 1422 1420 1419 1418 1416 1415 1413 1412 1411 1410 1410 1410 1410 1410 1410 1411 1413 1414 1416 1418 1420 1422 1424 1427 1429 1432 1435 1438 1440 1443 1445 1447 1449 1451 1453 1455
1422 1422 1422 1421 1421 1420 1419 1418 1417 1416 1414 1413 1411 1410 1408 1407 1406 1405 1404 1404 1404 1405 1405 1406 1408 1409 1411 1413 1415 1417 1420 1423 1425 1428 1430 1433 1436 1439 1442 1444 1446 1448 1450 1452
1419 1418 1418 1417 1416 1415 1415 1413 1412 1410 1409 1408 1407 1405 1404 1402 1401 1400 1399 1399 1400 1401 1401 1402 1403 1404 1406 1408 1411 1413 1416 1418 1421 1424 1427 1430 1433 1436 1438 1440 1443 1445 1447 1449
1416 1414 1413 1413 1412 1411 1410 1409 1407 1406 1404 1403 1402 1401 1399 1398 1397 1396 1395 1395 1395 1396 1396 1397 1398 1400 1402 1404 1406 1409 1412 1414 1417 1420 1423 1426 1429 1432 1434 1437 1439 1442 1444 1446
1412 1411 1409 1409 1408 1406 1405 1404 1402 1401 1399 1398 1397 1396 1394 1393 1392 1392 1391 1391 1391 1391 1392 1393 1394 1396 1398 1400 1402 1405 1408 1411 1413 1416 1419 1422 1425 1428 1431 1433 1436 1438 1440 1442
1408 1407 1406 1404 1403 1402 1400 1399 1397 1396 1394 1393 1392 1391 1390 1389 1388 1388 1387 1387 1387 1387 1388 1389 1391 1392 1394 1396 1398 1401 1404 1407 1410 1412 1415 1418 1421 1424 1427 1429 1432 1434 1437 1439
1404 1402 1401 1400 1398 1397 1396 1394 1393 1391 1390 1389 1388 1387 1386 1385 1384 1383 1383 1383 1383 1384 1384 1385 1387 1388 1390 1392 1394 1397 1399 1402 1405 1408 1411 1414 1417 1420 1423 1426 1428 1431 1433 1435
1399 1398 1396 1395 1394 1393 1391 1390 1389 1387 1386 1385 1384 1383 1382 1381 1380 1379 1379 1379 1379 1380 1381 1381 1383 1384 1386 1388 1390 1393 1395 1398 1402 1405 1408 1411 1414 1416 1419 1422 1425 1427 1430 1432
1395 1393 1392 1390 1389 1388 1387 1386 1385 1383 1383 1381 1380 1380 1379 1378 1377 1376 1376 1376 1376 1377 1377 1378 1379 1381 1383 1385 1387 1389 1392 1395 1398 1401 1404 1407 1410 1413 1416 1419 1421 1424 1426 1428